Meridian No. 13L

operational
NORAD ID: 37212 Int'l Des: 2010-058 Owner: KVR Country: RU
MEOELLIPTICALHEO_ELLIPTICALSEMI_SYNCMOLNIYA

关于 Meridian No. 13L

正在加载描述...

实时位置

正在加载3D地球...

即将过境

高度历史

Altitude vs Time

uPlot chart will show altitude changes over time

两行轨道根数

1 37212U 10058A 26062.15121947 -.00000048 00000-0 00000-0 0 9998
2 37212 63.4576 103.2172 6774258 261.2550 22.7222 2.00601046112330
Epoch: Mar 3, 2026 • Age: 22 hours

当前状态

高度 37198.6 km
速度 1.81 km/s
星下点 63.47°N, 62.58°E
发射日期 Nov 2, 2010
运行时间 15.3 years
类型 other

技术详情

分类 Payload
质量 2000.00 kg
干质量 2000.00 kg
总质量 2000.00 kg
长度 4.00 m
直径 2.00 m
跨度 10.00 m
形状 Box + 2 Pan
制造商 RESH
平台类型 Meridian
阶段状态 In Orbit
所有者/国家 KVR/RU

大型星座

Loading constellations...